GFSFLT2_prec_cloud_057.txt.gz
Cloud_Cover
100 100 100 100 100 100 100 100 100 100 100 100 100 98 87 97 88 100 58 28 45 30 8 4 12 43 13 5 12 5 1 5
100 100 100 100 100 100 100 100 100 100 100 100 100 97 31 9 12 98 95 100 96 5 19 53 5 8 5 5 5 5 6 19
100 100 100 100 100 100 100 100 100 100 100 100 100 100 99 100 50 79 98 23 6 19 13 30 30 18 95 5 82 92 4 32
100 100 100 100 100 100 100 100 100 100 100 100 100 100 100 100 100 95 100 48 8 20 58 79 84 50 48 59 6 10 6 52
92 100 100 100 100 100 100 100 100 100 100 100 100 100 100 100 100 99 90 98 89 37 14 90 98 97 96 100 100 99 18 5
100 100 100 100 100 100 100 100 100 100 100 100 100 100 100 100 100 100 100 100 99 100 100 100 100 100 100 53 47 64 4 76
100 100 100 100 100 100 100 100 100 100 100 100 100 100 100 100 100 93 100 88 79 100 87 100 93 73 21 100 99 15 5 5
100 100 100 100 100 100 100 100 100 100 100 100 100 100 100 100 100 100 100 100 100 100 100 100 94 80 16 20 5 5 10 2
100 100 100 100 100 100 100 100 100 100 100 100 100 100 100 100 100 100 100 100 100 100 100 100 100 88 6 5 47 6 5 3
100 100 100 100 100 100 100 100 100 100 100 100 100 100 100 100 100 100 100 100 100 100 100 85 16 9 7 5 60 14 10 5
40 100 100 100 100 100 100 100 100 100 100 100 100 100 100 100 100 100 100 100 100 86 62 70 23 5 28 32 5 5 2 0
4 25 8 94 100 100 100 100 100 100 100 100 100 100 100 100 100 100 99 100 100 7 30 7 5 35 48 5 5 1 0 0
5 73 99 100 100 100 100 100 100 96 96 100 100 100 100 100 100 100 34 67 66 42 6 6 62 30 5 4 0 0 0 0
48 51 14 30 30 19 13 23 83 84 95 89 98 95 77 71 100 99 15 35 49 28 48 56 9 5 0 1 1 0 1 2
100 99 11 5 16 26 51 34 19 41 55 100 47 62 50 100 99 79 40 39 21 18 19 8 5 10 5 5 24 5 5 5
100 100 95 76 83 100 100 100 100 100 70 91 86 87 100 100 100 74 14 6 5 24 80 77 80 49 18 5 28 21 5 5
100 98 67 70 59 31 93 100 100 100 100 100 100 98 76 99 53 49 5 6 81 12 64 100 100 100 89 31 55 66 25 5
86 98 96 100 100 85 86 100 98 100 97 100 100 90 68 95 6 10 5 5 34 86 92 100 100 100 100 92 100 83 18 5
92 66 26 29 38 64 99 100 100 100 100 100 100 100 99 83 42 87 96 84 91 85 88 100 100 100 98 88 100 28 38 5
9 24 90 100 58 95 100 100 100 100 100 100 100 100 95 9 100 97 95 98 46 98 100 100 100 100 100 86 100 82 15 5

GFSFLT2_prec_cloud_060.txt.gz
Cloud_Cover
100 100 100 100 100 100 100 100 100 100 100 100 100 100 100 100 100 100 100 96 99 79 95 100 37 5 0 5 3 0 0 0
100 100 100 100 100 100 100 100 100 100 100 100 100 100 100 100 100 85 92 70 100 100 100 100 22 0 2 0 6 12 5 5
100 100 100 100 100 100 100 100 100 100 100 100 100 100 100 100 100 100 99 94 89 95 63 100 100 48 5 17 100 93 20 100
100 100 100 100 100 100 100 100 100 100 100 100 100 100 100 100 100 100 100 100 100 100 100 100 100 55 20 99 100 100 91 96
100 100 100 100 100 100 100 100 100 100 100 100 100 100 100 100 98 100 100 100 100 100 100 68 96 96 99 99 72 100 100 99
100 100 100 100 100 100 100 100 100 100 100 100 100 100 100 100 100 100 100 94 72 95 100 100 100 100 100 93 69 100 30 75
100 100 100 100 100 100 100 100 100 100 100 100 100 100 100 100 100 100 100 100 100 100 100 100 99 98 70 100 100 97 100 100
100 100 100 100 100 100 100 100 100 100 100 100 100 100 100 100 100 100 100 95 100 100 100 100 100 80 100 100 82 36 60 55
72 95 100 100 100 100 100 100 100 100 100 100 100 100 100 100 100 100 100 100 100 100 100 100 99 100 100 99 5 27 6 5
52 52 100 100 100 100 100 100 100 100 100 100 100 100 100 100 100 100 100 100 100 100 100 95 98 100 100 79 17 29 5 5
96 100 100 100 100 100 100 100 100 100 100 100 100 100 100 100 100 100 100 100 100 91 78 82 97 73 92 58 32 5 5 5
99 100 100 100 100 100 100 100 100 100 100 100 100 100 100 100 100 100 100 100 97 98 78 99 99 28 56 5 5 5 5 2
42 100 100 100 100 100 100 100 100 100 100 100 100 100 100 100 100 100 100 100 100 56 5 30 93 26 5 5 5 5 0 0
4 47 95 99 100 100 100 100 100 100 100 100 100 100 100 100 100 98 100 99 14 72 24 5 11 6 5 5 14 6 1 4
56 88 88 100 100 100 100 100 100 100 100 100 100 100 100 100 77 88 100 100 64 12 5 5 5 5 5 39 100 53 5 5
99 99 64 89 100 79 97 86 100 100 69 89 97 100 100 92 84 100 100 100 66 5 29 8 45 6 89 100 100 81 15 21
100 89 69 31 7 46 30 5 1 0 54 85 92 100 100 100 100 92 100 100 75 5 5 10 28 100 100 100 100 43 93 100
16 16 69 88 34 28 9 24 38 59 70 100 100 100 100 100 100 100 100 100 7 50 16 90 100 99 100 100 100 100 97 51
94 98 94 27 24 18 52 98 96 100 100 100 100 100 100 100 100 100 100 100 80 14 99 100 100 70 100 84 100 100 100 65
76 10 72 62 52 82 94 88 100 100 100 100 100 100 92 100 100 100 100 100 80 100 100 100 99 99 100 100 100 100 59 5

GFSFLT2_prec_cloud_066.txt.gz
Cloud_Cover
100 100 100 100 100 100 100 100 100 94 100 88 87 60 45 98 99 100 100 100 100 99 100 98 83 11 40 19 5 0 0 0
100 100 100 100 100 100 100 100 100 100 100 100 100 100 100 100 100 100 100 100 100 100 100 100 97 65 9 10 5 0 0 0
100 100 100 100 100 100 100 100 100 100 100 100 100 100 100 100 100 100 100 100 100 100 96 13 26 7 22 5 5 5 5 5
100 100 100 100 100 100 100 100 100 100 100 100 100 100 100 100 100 100 100 100 100 94 22 40 18 62 100 75 41 87 92 85
100 100 100 100 100 100 100 100 100 100 100 98 100 100 100 100 100 100 100 100 100 100 99 94 100 100 100 100 34 80 100 94
100 100 100 100 100 100 100 100 100 100 100 91 100 100 100 100 100 100 100 100 100 100 100 100 100 90 26 32 89 97 100 100
100 100 100 100 100 100 100 100 100 100 100 100 100 100 100 100 100 100 100 100 100 100 100 100 98 100 99 100 100 100 100 100
100 100 100 100 100 100 100 100 100 100 100 95 100 100 100 100 100 100 100 100 100 100 100 100 100 100 100 100 100 100 96 100
100 100 100 100 100 100 100 100 100 100 100 100 100 100 100 100 100 100 100 100 100 100 100 100 100 100 100 100 100 100 100 100
100 100 100 100 100 100 100 100 100 99 99 100 100 100 100 100 100 100 100 100 100 100 100 100 100 100 100 100 100 100 100 89
100 100 100 100 100 100 100 100 100 100 100 100 100 100 100 100 100 100 100 100 100 100 100 100 100 100 100 100 100 100 100 100
100 100 100 100 100 100 100 100 100 100 99 100 100 100 100 100 100 100 100 100 100 100 100 100 100 100 100 100 100 100 100 90
100 100 100 100 100 100 100 100 100 100 100 100 100 100 100 100 100 100 100 100 100 100 100 100 100 100 100 100 100 95 63 62
96 89 86 82 100 100 100 100 100 100 100 100 100 100 100 100 100 100 100 100 100 100 100 100 100 100 76 100 100 100 73 97
5 17 83 96 50 81 100 100 100 100 100 100 100 100 100 100 100 100 100 100 100 100 100 100 100 100 94 90 99 100 100 98
100 55 2 0 82 90 1 14 15 30 6 33 99 100 100 100 100 100 100 100 100 100 100 100 99 100 100 100 100 100 100 100
49 85 92 90 68 98 93 9 7 9 4 4 16 59 16 84 91 98 100 100 96 97 100 100 100 100 100 100 100 100 100 100
100 100 100 100 96 5 52 83 14 5 7 17 16 69 87 100 100 100 100 100 100 100 100 100 100 100 100 100 100 100 100 100
80 100 100 100 100 81 49 45 6 6 20 16 49 97 100 100 100 100 100 100 100 100 100 100 100 100 100 100 100 100 100 100
27 98 99 85 17 47 97 100 70 6 5 4 5 5 67 100 100 100 100 100 100 100 100 100 100 100 100 100 100 100 100 100

GFSFLT2_prec_cloud_069.txt.gz
Cloud_Cover
100 100 100 100 100 100 100 100 100 100 100 100 100 100 82 50 89 98 46 8 89 100 100 100 93 7 5 16 16 0 1 5
100 100 100 100 100 100 100 100 100 100 100 100 100 100 99 100 100 100 100 100 100 100 100 100 65 57 48 5 5 5 1 1
100 100 100 100 100 100 100 100 100 100 100 100 100 100 100 97 100 100 100 100 100 100 92 100 79 5 5 14 18 18 5 68
100 100 100 100 100 100 100 100 100 100 100 100 100 100 93 100 100 100 100 100 100 100 50 11 5 5 5 21 24 69 100 82
100 100 100 100 100 100 100 100 100 100 100 100 100 100 100 100 100 100 100 94 96 99 66 96 100 100 84 27 100 100 100 63
100 100 100 100 100 100 100 100 100 100 100 100 100 100 100 100 100 100 100 100 100 100 98 84 98 100 100 98 100 90 87 100
100 100 100 100 100 100 100 100 100 100 100 100 100 97 90 100 100 100 100 100 100 100 100 100 61 64 100 100 100 100 85 75
100 100 100 100 100 100 100 100 100 100 100 100 100 96 77 99 100 100 100 100 100 100 100 100 100 100 100 100 100 100 100 100
100 100 100 100 100 100 100 100 100 100 100 100 100 98 98 94 100 100 100 100 100 100 100 100 100 100 100 100 100 100 100 100
100 100 100 100 100 100 100 100 100 100 90 100 100 100 100 100 100 100 100 100 100 100 100 100 100 100 100 100 100 100 100 100
100 100 100 100 100 100 100 100 100 100 100 100 93 100 100 100 100 100 100 100 100 100 100 100 100 100 100 100 100 100 100 100
100 100 100 100 100 100 100 100 100 100 100 100 100 100 100 96 100 100 100 100 100 100 100 100 100 100 100 100 100 100 100 100
100 100 100 100 100 100 100 100 100 100 100 100 100 100 100 100 100 100 100 100 100 100 100 100 100 100 100 100 100 100 100 100
89 100 100 100 100 100 100 100 100 100 100 100 100 100 100 100 100 100 100 100 100 100 100 100 100 100 100 100 100 98 100 100
100 100 100 100 100 100 100 100 100 100 100 100 100 100 100 100 100 100 100 100 100 100 100 100 100 100 100 99 98 98 100 90
30 100 100 100 100 100 100 100 100 100 100 100 100 100 100 100 100 100 100 100 100 99 100 68 100 100 97 100 100 100 100 98
5 81 86 99 100 100 100 100 100 100 100 100 100 100 100 100 98 98 99 100 99 65 66 97 100 100 100 100 100 100 100 100
100 100 72 55 78 50 25 99 90 45 77 5 3 16 76 9 59 68 14 21 63 34 76 100 100 100 100 100 100 100 100 100
100 87 100 100 100 100 32 5 7 0 1 5 5 5 67 85 52 94 58 45 100 63 79 98 100 98 100 100 100 100 100 100
22 98 97 48 5 89 100 33 5 5 5 4 5 5 60 81 7 25 7 39 66 100 100 100 100 100 100 100 100 100 100 100

GFSFLT2_prec_cloud_072.txt.gz
Cloud_Cover
100 100 100 100 100 100 100 100 100 100 100 100 100 100 100 100 100 100 100 74 5 5 5 74 100 100 80 5 5 5 5 5
100 100 100 100 100 100 100 100 100 100 100 100 100 100 100 100 100 100 100 97 100 100 100 98 79 100 100 5 5 5 5 5
100 100 100 100 100 100 100 100 100 100 100 100 100 100 100 100 100 100 100 100 100 100 100 100 100 99 100 40 27 5 58 5
100 100 100 100 100 100 100 100 100 100 100 100 100 100 100 100 100 100 100 91 84 100 100 93 5 70 42 7 7 5 5 5
100 100 100 100 100 100 100 100 100 100 100 100 100 100 100 100 95 100 100 100 99 100 100 77 8 5 30 88 99 85 100 11
100 100 100 100 100 100 100 100 100 100 100 100 100 100 100 86 100 100 100 100 100 100 94 100 73 74 100 100 99 100 100 100
100 100 100 100 100 100 100 100 100 100 100 100 100 100 100 84 100 75 100 100 100 100 100 100 100 100 100 100 100 100 100 100
100 100 100 100 100 100 100 100 100 100 100 100 100 100 100 100 91 92 100 86 98 100 100 100 100 100 100 100 99 100 100 99
100 100 100 100 100 100 100 100 100 100 100 100 100 100 100 88 92 95 93 98 100 100 97 100 100 100 95 100 100 65 100 100
100 100 100 100 100 100 100 100 100 100 100 100 100 100 100 100 93 100 97 100 100 100 100 100 100 100 100 99 100 100 100 100
100 100 100 100 100 100 100 100 100 100 100 100 100 100 100 100 100 100 99 100 100 90 57 90 100 100 100 100 100 100 100 100
100 100 100 100 100 100 100 100 100 100 100 100 100 100 100 100 100 100 95 99 83 100 100 100 100 100 100 100 100 100 100 100
100 100 100 100 100 100 100 100 100 100 100 100 100 100 100 100 78 75 100 100 100 100 100 100 100 100 100 100 100 100 100 100
100 100 100 97 100 100 100 100 100 100 100 90 100 100 100 100 99 46 99 100 100 100 100 100 100 100 100 100 100 100 100 94
92 99 69 94 100 100 100 100 100 100 100 100 100 100 97 100 100 100 100 100 100 98 97 100 100 100 100 100 100 100 98 100
100 100 100 100 100 100 100 100 100 100 100 100 100 100 100 100 100 95 100 100 100 73 65 89 100 92 84 100 100 100 100 100
100 47 99 100 100 100 100 100 100 100 100 100 100 100 100 100 100 100 100 99 98 100 100 100 100 100 99 98 100 100 100 100
100 100 100 100 100 100 100 100 98 100 100 100 100 100 100 100 100 100 100 100 100 90 28 84 89 97 64 100 100 100 100 100
6 48 72 100 100 88 100 98 100 91 58 80 96 100 100 100 96 99 75 59 100 100 96 60 87 100 100 100 100 100 100 100
78 84 85 100 63 67 100 100 55 17 43 95 61 35 83 50 100 100 99 100 100 99 34 88 100 100 100 100 100 100 100 100

GFSFLT2_prec_cloud_075.txt.gz
Cloud_Cover
100 96 100 100 100 100 100 100 100 100 100 100 99 82 100 100 93 100 100 80 100 100 100 5 23 19 88 95 99 100 96 66
100 100 100 100 100 100 100 100 100 100 100 100 100 100 100 100 100 24 28 69 100 100 60 6 5 26 49 99 78 100 100 72
100 100 100 100 100 100 100 100 100 100 100 100 100 100 100 100 100 100 94 73 48 72 27 25 5 89 42 25 100 76 69 55
100 100 99 94 100 100 100 100 100 100 100 100 100 100 100 100 100 97 100 71 85 69 87 100 85 83 36 87 67 74 5 5
100 100 100 100 100 100 100 100 100 100 100 100 100 100 100 100 100 100 100 97 98 100 100 100 100 63 84 36 7 5 21 23
100 100 100 100 100 100 100 100 100 100 100 100 100 100 100 100 100 100 100 100 69 97 100 100 100 100 73 100 62 20 8 50
100 100 100 100 100 100 100 100 100 100 100 100 100 100 100 100 100 99 100 84 81 84 98 99 100 94 84 100 100 75 73 81
100 100 100 100 100 100 100 100 100 100 100 100 100 100 100 100 100 100 100 97 97 100 100 99 100 100 65 100 100 100 100 100
100 100 100 100 100 100 100 100 100 100 100 100 100 100 100 100 100 100 100 88 83 57 100 100 100 100 100 100 100 100 100 100
100 100 100 100 100 100 100 100 100 100 100 100 100 100 100 100 100 100 100 100 89 99 100 100 100 100 100 100 100 100 100 100
100 100 100 100 100 100 100 100 100 100 100 100 100 100 100 100 100 100 100 100 100 100 100 100 100 100 100 100 100 100 100 100
100 100 100 100 100 100 100 100 100 100 100 100 100 100 100 100 100 100 100 100 100 100 100 100 100 100 68 93 100 100 100 100
100 100 100 100 100 100 100 100 100 100 100 100 100 100 100 100 100 100 100 100 100 100 100 100 100 98 100 100 100 100 100 100
100 100 100 100 100 100 100 100 100 100 100 100 100 100 100 100 100 100 100 100 100 100 100 98 100 100 100 100 100 100 100 100
100 100 100 100 100 100 100 100 100 100 100 100 100 100 100 100 100 100 100 100 100 100 100 100 100 94 100 99 96 100 100 100
100 100 100 100 100 100 100 100 100 100 100 100 100 100 100 100 100 100 100 100 100 100 100 100 95 80 99 99 94 89 100 98
100 100 100 100 100 100 100 100 100 100 100 100 100 100 100 100 100 100 100 100 80 98 100 99 98 93 100 100 92 100 99 100
100 100 100 100 100 100 100 100 100 100 100 100 100 100 100 100 100 100 100 100 86 87 73 69 51 34 45 59 95 100 100 84
13 6 9 11 34 100 100 100 100 100 47 68 45 80 62 73 76 99 92 88 95 69 100 99 92 52 50 55 90 100 100 64
4 5 5 5 5 16 26 84 6 5 10 6 10 19 64 99 100 100 100 100 89 100 100 100 99 40 93 100 79 88 100 100

GFSFLT2_prec_cloud_078.txt.gz
Cloud_Cover
100 100 100 100 100 100 100 100 100 100 100 100 100 100 100 100 100 100 100 86 54 68 31 57 29 7 12 5 29 5 10 48
100 100 100 100 100 100 100 100 100 100 100 100 100 100 100 100 100 100 100 100 99 20 94 100 100 93 17 5 97 97 38 100
100 100 100 100 100 100 100 100 100 100 100 100 100 100 100 100 100 100 100 100 100 23 95 99 86 96 50 75 90 88 62 84
100 100 100 100 100 100 100 100 100 100 100 100 99 100 100 100 100 100 100 100 100 100 95 100 100 99 88 100 83 68 92 94
100 100 100 100 100 100 100 100 100 100 100 100 100 100 100 100 100 100 100 100 100 92 87 93 100 100 98 99 100 100 98 100
100 100 100 100 100 100 100 100 100 100 100 100 100 100 100 100 100 100 100 100 100 100 95 100 99 99 99 94 73 100 100 100
100 100 100 100 100 100 100 100 100 100 100 100 100 100 100 100 100 100 100 100 100 100 100 94 99 75 95 100 98 100 100 100
100 100 100 100 100 100 100 100 100 100 100 100 100 100 100 100 100 100 100 100 100 100 100 98 97 99 100 100 100 100 100 100
100 100 100 100 100 100 100 100 100 100 100 100 100 100 100 100 100 100 100 100 100 100 100 100 100 81 92 100 100 100 100 100
100 100 100 100 100 100 100 100 100 100 100 100 100 100 100 100 100 100 100 100 100 100 78 100 96 100 95 100 100 100 100 100
100 100 100 100 100 100 100 100 100 100 100 100 100 100 100 100 100 100 100 100 99 96 99 99 100 94 100 100 100 100 100 100
100 100 100 100 100 100 100 100 100 100 100 100 100 100 100 100 100 100 100 100 94 92 100 100 100 100 100 100 100 100 100 100
100 100 100 100 100 100 100 100 100 100 100 100 100 100 100 100 100 100 100 100 100 100 100 100 100 100 100 100 100 100 100 100
100 100 100 100 100 100 100 100 100 100 100 100 100 100 100 100 100 100 100 100 100 100 100 100 100 100 100 100 100 100 98 82
100 100 100 100 100 100 100 100 100 100 100 100 100 100 100 100 100 100 100 100 100 100 100 100 100 100 100 100 100 100 100 92
100 100 100 100 100 100 100 100 100 100 100 100 100 100 100 100 100 100 100 100 100 100 100 100 100 100 100 100 100 100 100 99
100 100 100 100 100 100 100 100 100 100 100 100 100 100 100 100 100 100 100 100 100 100 100 100 100 100 100 99 99 56 100 100
100 100 100 100 100 100 100 100 100 100 100 100 100 100 100 100 100 100 82 100 100 100 100 100 92 62 5 92 99 100 82 100
77 96 100 100 100 100 100 100 100 100 100 100 100 100 100 100 100 100 100 100 100 100 96 78 28 16 100 100 100 100 100 99
8 6 88 85 100 100 100 100 100 100 100 100 100 100 100 100 100 100 93 100 90 100 100 77 100 100 100 100 100 98 98 100

GFSFLT2_prec_cloud_084.txt.gz
Cloud_Cover
100 63 100 100 8 6 57 47 100 100 100 100 100 100 86 99 100 100 100 100 100 100 100 100 89 10 13 11 57 53 5 5
100 100 100 100 100 100 100 100 100 100 100 100 100 100 86 88 96 100 100 100 100 100 100 99 100 54 37 8 37 100 13 20
100 100 100 100 100 100 100 100 100 100 100 100 100 100 100 100 100 100 100 100 100 100 100 100 100 77 87 30 76 32 5 27
100 100 100 84 100 100 100 100 100 100 100 100 100 100 100 100 100 100 100 100 100 100 100 100 100 90 5 5 37 24 7 34
100 100 100 100 100 100 100 100 100 100 100 100 100 100 100 100 100 100 100 100 100 100 99 100 100 100 11 5 37 5 85 94
100 100 100 100 100 100 100 100 98 100 100 100 100 100 100 100 100 100 100 100 100 100 94 36 100 100 89 15 68 69 31 100
100 100 100 100 100 100 100 100 87 100 100 100 100 100 100 100 100 100 100 100 100 100 100 82 51 60 11 83 100 100 100 100
100 100 100 100 100 100 100 100 100 100 100 100 100 100 100 100 100 100 100 100 100 100 100 95 100 96 100 75 30 34 100 100
100 100 100 100 100 100 100 100 100 100 100 100 100 100 100 100 100 100 100 100 100 100 100 85 100 100 26 95 98 100 100 100
100 100 100 100 100 100 100 100 100 100 100 100 100 100 100 100 100 100 100 100 100 100 100 100 100 100 96 40 88 76 77 83
100 100 100 100 100 100 100 100 100 100 100 100 100 100 100 100 100 100 100 100 100 100 100 100 100 100 92 59 63 94 96 70
100 100 100 100 100 100 100 100 100 100 100 100 100 100 100 100 100 100 100 100 100 100 100 100 100 95 74 87 99 90 92 37
100 100 100 100 100 100 100 100 100 100 100 100 100 100 100 100 100 100 100 100 100 100 100 100 100 93 99 100 92 65 87 100
100 98 99 100 100 100 100 100 100 100 100 100 100 100 100 100 100 100 100 100 100 100 100 100 100 93 93 98 100 100 100 100
100 100 100 100 100 100 100 100 100 100 100 100 100 100 100 100 100 100 100 100 98 100 100 100 100 100 100 100 100 100 92 52
100 100 100 100 100 100 100 100 100 100 100 100 100 100 100 100 100 95 100 100 100 100 100 100 100 100 100 100 94 95 100 100
100 100 100 100 100 100 100 100 100 100 100 100 100 100 100 100 100 100 100 100 100 100 100 100 100 100 100 100 100 100 99 100
100 100 100 100 100 100 100 100 100 100 100 100 100 100 100 100 100 100 100 100 100 100 100 100 100 100 85 99 95 100 100 98
100 100 100 100 100 100 100 100 100 100 100 100 100 100 100 100 100 100 100 100 100 100 100 100 100 100 100 100 100 96 98 100
99 100 100 100 100 100 100 100 100 100 100 100 100 100 100 100 100 100 100 100 100 100 100 100 100 100 100 100 100 100 98 99

GFSFLT2_prec_cloud_087.txt.gz
Cloud_Cover
21 57 78 100 100 76 81 100 100 100 100 100 100 100 100 100 100 100 100 95 74 100 86 100 100 100 100 100 30 7 41 24
80 53 100 100 100 80 100 100 100 100 100 100 100 100 100 100 100 100 100 100 100 100 100 97 100 100 100 94 90 41 12 5
94 75 100 100 100 89 94 100 100 100 100 100 100 100 100 100 100 100 100 100 94 57 100 100 100 100 100 100 72 19 5 9
100 67 96 100 100 94 100 100 100 100 100 100 100 100 100 100 100 100 100 70 52 52 94 100 100 100 100 76 11 5 34 9
100 93 100 100 100 100 100 100 100 100 100 100 100 100 100 100 100 100 100 100 100 100 100 100 100 100 100 93 10 8 31 15
63 100 99 100 97 100 100 100 100 100 100 100 100 100 100 100 100 100 100 100 100 100 100 100 100 100 100 100 100 45 37 99
100 100 100 100 100 100 100 100 100 100 100 100 100 100 100 100 100 100 100 100 100 100 100 100 100 100 100 92 26 94 77 100
100 100 100 99 100 100 100 100 100 100 100 100 100 100 100 100 100 100 100 100 100 100 100 100 100 100 85 55 74 66 100 100
100 100 100 100 100 100 100 95 100 100 100 100 100 100 100 100 100 100 100 100 100 100 100 100 100 100 100 88 80 100 99 100
100 72 100 100 100 100 100 100 100 100 100 100 100 100 100 100 100 100 100 100 100 100 100 100 100 100 100 100 100 100 100 100
100 77 94 100 100 100 100 100 100 100 100 100 100 100 100 100 100 100 100 100 100 100 100 100 100 100 100 100 100 100 97 95
100 100 100 100 100 100 100 100 100 100 100 100 100 100 100 100 100 100 100 100 100 100 100 100 100 100 100 100 100 100 100 100
100 99 100 100 100 100 100 100 100 100 100 100 100 100 100 100 100 100 100 100 100 100 100 100 100 100 100 92 100 100 78 38
100 98 85 87 100 100 100 100 100 100 100 100 100 100 100 100 100 100 100 100 100 100 100 100 100 100 100 100 100 77 6 41
100 94 100 94 100 100 100 100 100 100 100 100 100 100 100 100 100 100 100 100 100 100 100 100 100 100 99 58 100 86 68 91
100 100 100 98 91 100 100 100 100 100 100 100 100 100 100 100 100 100 100 100 100 100 100 100 94 100 97 100 100 100 100 100
90 96 96 100 100 100 100 100 100 100 100 100 100 100 100 100 100 100 100 100 100 100 100 98 100 100 100 100 100 100 100 100
100 95 100 100 99 100 100 100 100 100 100 100 100 100 100 100 100 100 100 87 93 100 100 100 100 100 100 100 100 100 100 100
100 99 100 100 100 100 100 100 100 100 100 100 100 100 100 100 100 100 100 100 100 100 100 100 100 100 100 100 100 100 100 100
100 100 100 98 100 100 100 100 100 100 100 100 100 100 100 100 100 100 100 100 100 100 100 100 100 100 100 100 100 100 100 100